Location: Newark
(49.1147°N, 0.4158°E)
Time: 03:59:13
(UTC+00:00)

OTV 5 (USA 277) - Visible Passes

Search period start: 18 October 2019 00:00
Search period end: 28 October 2019 00:00
Orbit: 310 x 324 km, 54.5° (Epoch: 08 October)

Date Brightness Start Highest point End Pass type
(mag) Time Alt. Az. Time Alt. Az. Time Alt. Az.
18 Oct ? 04:36:01 75° SE 04:36:01 75° SE 04:38:34 10° ESE visible
19 Oct ? 04:50:31 38° SSW 04:50:31 38° SSW 04:52:55 10° SE visible
20 Oct ? 05:05:08 17° SSW 05:05:08 17° SSW 05:06:40 10° S visible
